www.pogodaiklimat.ru

Погода и климат >> Архив погоды >> Мексика >> Hidalgo del Parral


ПОГОДА в Hidalgo del Parral

  • Прогноз погоды в Hidalgo del Parral
  • Монитор погоды в Hidalgo del Parral
  • Климат города

АРХИВ ПОГОДЫ в Hidalgo del Parral

Время (UTC), дата Ветер
(напр.,м/с)
 
Видим.   Явления Облачность Т
(С)
Тd
(С)
f
(%)
Тe
(С)
Тes
(С)
Комфортность P
(гПа)
Po
(гПа)
Тmin
(С)
Tmax
(С)
R
(мм)
R24
(мм)
S
(см)
03 13.07 СЗ 2 1000 м 6/4 1320 м
[Sc Ci fib]
+23.8 +12.6 49 +26 +26 жарко 1011.0 829.4
12 13.07 СЗ 2 5000 м 5/5 600 м
[Sc]
+19.2 +13.8 71 +21 +21 комфорт 1017.5 831.3 +18.8 +32.0
15 13.07 СЗ 1 10 км 3/0
[Cs]
+21.4 +11.8 54 +23 +32 комфорт 1019.8 832.4
18 13.07 С 2 10 км 4/4 1500 м
[Sc]
+28.0 +13.9 42 +30 +42 жарко 1019.1 832.4 +13.9 +28.4
21 13.07 В 2 10 км 8/8 630 м
[Sc]
+32.0 +12.4 30 +32 +36 жарко 1015.8 831.1
00 14.07 З 3 10 км 8/4 600 м
[Sc diur, vesp Cs]
+32.0 +9.6 25 +31 +33 жарко 1009.5 827.5 +18.0 +32.7
03 14.07 СЗ 2 1000 м гроза, ливневой дождь 9/8 1500 м
[Cb cap Ci fib]
+26.6 +12.3 41 +28 +28 жарко 1010.3 829.2 0.0
12 14.07 СЗ 1 2000 м 5/5 600 м
[Sc]
+17.6 +12.7 73 +19 +19 1017.9 831.1 +17.4 +32.7
15 14.07 ЮЗ 1 10 км 3/0
[Cs]
+20.4 +10.2 52 +23 +31 комфорт 1020.6 831.9
18 14.07 СЗ 2 10 км 3/1 1500 м
[Cu hum Ci fib]
+28.0 +13.2 40 +30 +47 жарко 1018.9 831.5 +16.6 +28.6
21 14.07 С 2 10 км 5/5 870 м
[Cb calv]
+32.0 +10.4 26 +32 +40 жарко 1014.6 829.6
00 15.07 З 2 10 км 8/5 600 м
[Cb calv Cs]
+33.4 +10.8 25 +33 +34 жарко 1009.7 827.5 +16.6 +33.4
03 15.07 СЗ 1 1000 м гроза, ливневой дождь 9/9 1500 м
[Cb cap]
+27.4 +12.9 41 +29 +29 жарко 1009.1 828.3 0.3
12 15.07 СЗ 2 6000 м 3/0 2000 м
[Ac trans Ci fib]
+18.7 +13.0 69 +20 +20 1016.6 830.5 +18.4 +33.4
15 15.07 СЗ 1 10 км 1/0 2000 м
[Ac trans]
+22.8 +13.6 56 +26 +34 жарко 1018.4 830.9
18 15.07 СЗ 2 10 км 3/0 2000 м
[Ac trans Ci fib]
+29.2 +11.7 34 +30 +49 жарко 1016.7 830.5 +18.3 +29.8
21 15.07 СЗ 2 10 км слабый дождь 8/8 1470 м
[Cu hum]
+28.4 +16.5 48 +32 +35 душно 1013.2 828.6 2
00 16.07 С 2 10 км 9/9 600 м
[Cb calv]
+30.6 +10.9 30 +31 +31 жарко 1009.0 826.8 +18.3 +33.7
03 16.07 СЗ 2 1000 м гроза без осадков 10/10 1500 м
[Cb calv]
+24.8 +10.9 42 +26 +26 жарко 1009.6 828.1
06 16.07 СЗ 1 1000 м 6/6 930 м
[Cb calv]
+21.7 +14.1 62 +25 +25 комфорт 1013.7 830.8 +18.3 +33.7
09 16.07 СЗ 1 1000 м 9/8 500 м
[Sc]
+19.7 +15.4 76 +23 +23 комфорт 1015.4 831.3
12 16.07 СВ 1 2000 м в посл. час дождь 10/4 300 м
[Sc diur, vesp As op]
+18.6 +15.6 83 +21 +21 комфорт 1016.9 830.8 0.0
15 16.07 СЗ 1 10 км в посл. час дождь 10/8 700 м
[Sc diur, vesp As op]
+19.6 +13.8 69 +22 +23 комфорт 1019.0 831.5 0.0
18 16.07 ЮЗ 3 10 км слабая морось 9/9 1000 м
[Sc]
+23.2 +14.0 56 +27 +28 душно 1019.4 831.8 0.0
21 16.07 СЗ 3 10 км 9/9 1500 м
[Sc]
+26.0 +13.5 46 +28 +30 жарко 1016.6 830.1
00 17.07 С 1 10 км 9/9 1000 м
[Cb calv]
+24.4 +13.7 51 +27 +27 жарко 1012.3 827.4 +17.9 +27.0
03 17.07 С 1 1000 м гроза, ливневой дождь 10/10 240 м
[Cb cap]
+17.4 +15.3 87 +18 +18 1013.7 828.8 4
06 17.07 СЗ 1 1000 м слабый дождь 10/10 100 м
[Sc]
+16.0 +15.1 94 +17 +17 1017.7 831.4 6
12 17.07 СЗ 2 1000 м слабый дождь 10/0 2000 м
[As op]
+16.2 +14.8 91 +16 +16 1020.4 831.1 2
15 17.07 С 1 10 км в посл. час дождь 9/0
[Cs]
+18.4 +15.7 84 +20 +27 1021.0 831.0 0.1
18 17.07 СЗ 3 10 км 8/8 1200 м
[Sc]
+24.0 +14.3 55 +27 +30 жарко 1019.6 830.7 +15.4 +24.8
21 17.07 СЗ 3 10 км 5/5 1500 м
[Sc]
+26.4 +13.7 46 +29 +36 жарко 1016.8 829.9
00 18.07 СЗ 1 10 км 9/8 1500 м
[Cb calv]
+26.0 +13.6 46 +28 +29 жарко 1013.4 828.5 +15.4 +27.6
03 18.07 СЗ 2 1000 м гроза, ливневой дождь 10/10 570 м
[Cb cap]
+20.0 +15.3 74 +23 +23 комфорт 1014.4 829.9 3
06 18.07 СЗ 2 1000 м 4/4 500 м
[Sc]
+18.8 +14.0 74 +20 +20 1017.0 831.5 +15.4 +27.6
09 18.07 СЗ 1 1000 м ясно +16.2 +14.1 87 +17 +17 1017.4 830.5
12 18.07 штиль 0 5000 м 1/0
[Ci fib]
+15.0 +12.9 87 +15 +15 1020.7 831.6 +14.2 +27.6
15 18.07 С 1 10 км 1/0
[Ci fib]
+19.4 +14.1 71 +22 +30 комфорт 1022.1 832.2
18 18.07 С 2 10 км ясно +27.8 +13.6 42 +30 +50 жарко 1020.1 831.5 +13.9 +28.2
21 18.07 СВ 2 10 км 5/5 1500 м
[Sc]
+30.0 +12.8 35 +31 +40 жарко 1016.4 830.2
00 19.07 В 2 10 км 5/4 600 м
[Sc diur, vesp Ac trans]
+30.2 +10.3 29 +30 +32 жарко 1010.9 827.9 +13.9 +31.4
03 19.07 СЗ 1 1000 м {гроза} 5/5 630 м
[Sc diur, vesp]
+21.8 +16.6 72 +26 +26 душно 1010.5 828.6 3
12 19.07 СЗ 1 6000 м ясно +18.6 +13.3 71 +20 +20 1015.8 829.2 +18.2 +31.4
15 19.07 СЗ 1 10 км ясно +23.4 +12.7 51 +26 +35 жарко 1017.8 830.2
18 19.07 С 2 10 км ясно +29.8 +12.2 34 +31 +51 опасность
солнечного
удара
1016.0 829.7 +16.6 +30.0
21 19.07 С 3 10 км 5/1 1500 м
[Sc Ac trans]
+32.0 +10.4 26 +32 +41 жарко 1012.3 828.4

 

Местоположение метеостанции Hidalgo del Parral (Мексика): широта 26.93 долгота -105.60 высота над уровнем моря 1661 м.

В архиве по умолчанию представлена погода в Hidalgo del Parral за последнюю неделю. Архивные данные за месяц целиком и за предыдущие месяцы, начиная с января 2011 года, Вы можете получить, выбрав интересующий диапазон дат из раскрывающегося списка и нажав кнопку "Ввод!".


*Определитесь, кто Вы:
робот инопланетянин человек

Внимание! Время в таблицах - всемирное. Для получения местного времени необходимо прибавить поправку, которая в Hidalgo del Parral равна -6 ч.

Смотрите также архив погоды в соседних городах и на ближайших метеорологических станциях:

Погода в Tepehuanes (Мексика) (177 км)
Погода в Chihuahua University (Мексика) (193 км)
Погода в Chihuahua (Мексика) (202 км)
Погода в Choix (Мексика) (259 км)
Погода в Torreon (Мексика) (269 км)
Погода в Culiacan (Мексика) (298 км)
Погода в Temosachic (Мексика) (312 км)
Погода в Durango (Мексика) (336 км)
Погода в Monclova (Мексика) (417 км)
Погода в Sombrerete (Мексика) (419 км)

Пояснения к столбцам:

Ветер - указаны скорость ветра в м/с - средняя за 10 мин, порывы в срок и между сроками (в фигурных скобках) и направление, откуда дует ветер: С - северный, СВ - северо-восточный, В - восточный, ЮВ - юго-восточный, Ю - южный, ЮЗ - юго-западный, З - западный, СЗ - северо-западный.
Видимость - горизонтальная дальность видимости в метрах или километрах. При видимости от 1 до 10 км при отсутствии осадков обычно наблюдается дымка, при ухудшении видимости до 1 км и менее - туман. В сухую погоду видимость может ухудшаться дымом, пылью или мглою.
Явления - указаны атмосферные явления, наблюдавшиеся в срок или в последний час перед сроком; фигурными скобками обозначены явления, наблюдавшиеся между сроками (за 1-3 часа до срока); квадратными скобками обозначены град или гололедные отложения с указанием их диаметра в мм.
Облачность - указаны через наклонную черту общая и нижняя облачность в баллах и высота нижней границы облаков в метрах; квадратными скобками обозначены формы облаков: Ci - перистые, Cs - перисто-слоистые, Cc - перисто-кучевые, Ac - высококучевые, As - высокослоистые, Sc - слоисто-кучевые, Ns - слоисто-дождевые, Cu - кучевые, Cb - кучево-дождевые. Подробнее классификацию облаков см. в Атласе облаков (PDF).
T - Температура воздуха - температура, измеренная на высоте 2 м над землей.
Td - Температура точки росы - температура, при понижении до которой содержащийся в воздухе водяной пар достигнет насыщения.
f - Относительная влажность воздуха - влажноcть воздуха, измеренная на высоте 2 м над землей.
Te - Эффективная температура - температура, которую ощущает одетый по сезону человек в тени. Характеристика душности погоды. При расчете учитывается влияние влажности воздуха и скорости ветра на теплоощущения человека.
Tes - Эффективная температура на солнце - температура, которую ощущает человек, с поправкой на солнечный нагрев. Характеристика знойности погоды. Зависит от высоты солнца над горизонтом, облачности и скорости ветра. Ночью, в пасмурную погоду, а также при ветре 12 м/с и более поправка равна нулю.
P - Атмосферное давление - приведенное к уровню моря атмосферное давление.
Po - Атмосферное давление - измеренное на уровне метеостанции атмосферное давление.
Tmin - Минимальная температура - минимум температуры воздуха на высоте 2 м над землей.
Tmax - Максимальная температура - максимум температуры воздуха на высоте 2 м над землей.
R - Количество осадков - Количество выпавших осадков за период времени, мм. При наведении курсора мыши на число - период времени, за который выпало указанное количество осадков.
R24 - Количество осадков - Количество выпавших осадков за 24 часа, мм.
S - Снежный покров - Высота снежного покрова, см. При наведении курсора мыши на число - состояние снежного покрова и степень покрытия местности в баллах.